TimeEDT,TemperatureF,Dew PointF,Humidity,Sea Level PressureIn,VisibilityMPH,Wind Direction,Wind SpeedMPH,Gust SpeedMPH,PrecipitationIn,Events,Conditions,WindDirDegrees,DateUTC
12:15 AM,50.0,50.0,100,30.08,0.2,SE,12.7,-,N/A,Fog,Fog,130,2013-04-30 04:15:00
12:35 AM,50.0,50.0,100,30.08,0.2,ESE,13.8,-,N/A,Fog,Fog,120,2013-04-30 04:35:00
12:55 AM,50.0,50.0,100,30.08,0.2,ESE,13.8,17.3,N/A,Fog,Fog,120,2013-04-30 04:55:00
1:15 AM,48.2,48.2,100,30.08,0.2,SE,10.4,-,N/A,Fog,Fog,130,2013-04-30 05:15:00
1:35 AM,48.2,48.2,100,30.08,0.2,ESE,11.5,18.4,N/A,Fog,Fog,120,2013-04-30 05:35:00
1:55 AM,48.2,48.2,100,30.08,0.2,SE,11.5,-,N/A,Fog,Fog,130,2013-04-30 05:55:00
2:15 AM,46.4,46.4,100,30.08,0.2,SE,12.7,-,N/A,Fog,Fog,130,2013-04-30 06:15:00
2:35 AM,46.4,46.4,100,30.08,0.2,ESE,12.7,-,N/A,Fog,Fog,120,2013-04-30 06:35:00
2:55 AM,46.4,46.4,100,30.07,0.2,ESE,15.0,-,N/A,Fog,Fog,120,2013-04-30 06:55:00
3:15 AM,46.4,46.4,100,30.08,0.2,SE,9.2,-,N/A,Fog,Fog,130,2013-04-30 07:15:00
3:35 AM,46.4,46.4,100,30.08,0.2,SE,9.2,17.3,N/A,Fog,Fog,130,2013-04-30 07:35:00
3:55 AM,46.4,46.4,100,30.08,0.2,ESE,11.5,-,N/A,Fog,Fog,120,2013-04-30 07:55:00
4:15 AM,46.4,46.4,100,30.08,0.2,ESE,13.8,-,N/A,Fog,Fog,120,2013-04-30 08:15:00
4:35 AM,46.4,46.4,100,30.09,0.2,ESE,11.5,-,N/A,Fog,Fog,120,2013-04-30 08:35:00
4:55 AM,46.4,46.4,100,30.10,0.2,ESE,12.7,-,N/A,Fog,Fog,120,2013-04-30 08:55:00
5:15 AM,46.4,46.4,100,30.11,0.2,SE,9.2,-,N/A,Fog,Fog,140,2013-04-30 09:15:00
5:35 AM,44.6,44.6,100,30.11,0.2,SE,12.7,-,N/A,Fog,Fog,130,2013-04-30 09:35:00
5:55 AM,44.6,44.6,100,30.11,0.2,ESE,13.8,-,N/A,Fog,Fog,120,2013-04-30 09:55:00
6:15 AM,44.6,44.6,100,30.12,0.2,SE,10.4,-,N/A,Fog,Fog,130,2013-04-30 10:15:00
6:35 AM,44.6,44.6,100,30.13,0.2,ESE,12.7,-,N/A,Fog,Fog,120,2013-04-30 10:35:00
6:55 AM,44.6,44.6,100,30.13,0.2,ESE,13.8,17.3,N/A,Fog,Fog,120,2013-04-30 10:55:00
7:15 AM,44.6,44.6,100,30.13,0.2,ESE,16.1,-,N/A,Fog,Fog,120,2013-04-30 11:15:00
7:35 AM,44.6,44.6,100,30.15,0.2,ESE,12.7,-,N/A,Fog,Fog,120,2013-04-30 11:35:00
7:55 AM,44.6,44.6,100,30.15,0.2,ESE,16.1,-,N/A,Fog,Fog,120,2013-04-30 11:55:00
8:15 AM,46.4,46.4,100,30.16,0.8,SE,13.8,19.6,N/A,,Overcast,130,2013-04-30 12:15:00
8:35 AM,46.4,46.4,100,30.16,0.5,SE,15.0,18.4,N/A,Fog,Fog,130,2013-04-30 12:35:00
8:55 AM,46.4,46.4,100,30.17,0.2,SE,13.8,17.3,N/A,Fog,Fog,130,2013-04-30 12:55:00
9:15 AM,46.4,46.4,100,30.18,2.0,ESE,13.8,-,N/A,,Overcast,120,2013-04-30 13:15:00
9:35 AM,46.4,46.4,100,30.18,0.8,ESE,15.0,-,N/A,,Overcast,120,2013-04-30 13:35:00
9:55 AM,46.4,46.4,100,30.17,10.0,ESE,15.0,21.9,N/A,,Overcast,120,2013-04-30 13:55:00
10:15 AM,48.2,48.2,100,30.17,7.0,SE,13.8,-,N/A,,Overcast,130,2013-04-30 14:15:00
10:35 AM,48.2,48.2,100,30.18,7.0,ESE,15.0,19.6,N/A,,Overcast,120,2013-04-30 14:35:00
10:55 AM,50.0,50.0,100,30.18,7.0,ESE,15.0,-,N/A,,Overcast,120,2013-04-30 14:55:00
11:15 AM,51.8,51.8,100,30.18,10.0,ESE,15.0,-,N/A,,Overcast,110,2013-04-30 15:15:00
11:35 AM,51.8,51.8,100,30.19,10.0,ESE,12.7,-,N/A,,Overcast,110,2013-04-30 15:35:00
11:55 AM,51.8,51.8,100,30.18,10.0,SE,15.0,-,N/A,,Overcast,130,2013-04-30 15:55:00
12:15 PM,53.6,53.6,100,30.18,10.0,SE,13.8,-,N/A,,Mostly Cloudy,130,2013-04-30 16:15:00
12:35 PM,53.6,53.6,100,30.18,10.0,ESE,15.0,19.6,N/A,,Mostly Cloudy,120,2013-04-30 16:35:00
12:55 PM,53.6,51.8,94,30.18,10.0,ESE,15.0,-,N/A,,Overcast,120,2013-04-30 16:55:00
1:15 PM,53.6,50.0,88,30.18,10.0,ESE,13.8,19.6,N/A,,Overcast,120,2013-04-30 17:15:00
1:55 PM,53.6,50.0,88,30.18,10.0,ESE,11.5,-,N/A,,Mostly Cloudy,120,2013-04-30 17:55:00
2:15 PM,55.4,50.0,82,30.18,10.0,ESE,12.7,17.3,N/A,,Mostly Cloudy,110,2013-04-30 18:15:00
2:55 PM,55.4,50.0,82,30.20,10.0,East,11.5,-,N/A,,Mostly Cloudy,100,2013-04-30 18:55:00
3:15 PM,57.2,50.0,77,30.19,10.0,ESE,11.5,-,N/A,,Scattered Clouds,110,2013-04-30 19:15:00
3:35 PM,57.2,50.0,77,30.19,10.0,ESE,13.8,18.4,N/A,,Mostly Cloudy,110,2013-04-30 19:35:00
3:55 PM,57.2,50.0,77,30.19,10.0,SE,15.0,20.7,N/A,,Mostly Cloudy,130,2013-04-30 19:55:00
4:15 PM,59.0,50.0,72,30.19,10.0,East,15.0,20.7,N/A,,Mostly Cloudy,100,2013-04-30 20:15:00
4:35 PM,55.4,50.0,82,30.19,10.0,ESE,17.3,24.2,N/A,,Mostly Cloudy,120,2013-04-30 20:35:00
4:55 PM,57.2,50.0,77,30.19,10.0,SE,17.3,24.2,N/A,,Scattered Clouds,130,2013-04-30 20:55:00
5:15 PM,55.4,50.0,82,30.19,10.0,ESE,16.1,23.0,N/A,,Mostly Cloudy,120,2013-04-30 21:15:00
5:35 PM,57.2,50.0,77,30.19,10.0,ESE,16.1,23.0,N/A,,Overcast,120,2013-04-30 21:35:00
5:55 PM,53.6,50.0,88,30.20,10.0,ESE,16.1,24.2,N/A,,Mostly Cloudy,120,2013-04-30 21:55:00
6:15 PM,53.6,50.0,88,30.20,10.0,SE,19.6,24.2,N/A,,Overcast,130,2013-04-30 22:15:00
6:35 PM,53.6,50.0,88,30.20,10.0,SE,12.7,18.4,N/A,,Mostly Cloudy,130,2013-04-30 22:35:00
6:55 PM,51.8,50.0,94,30.20,10.0,ESE,16.1,24.2,N/A,,Overcast,120,2013-04-30 22:55:00
7:15 PM,51.8,51.8,100,30.20,10.0,ESE,15.0,23.0,N/A,,Overcast,120,2013-04-30 23:15:00
7:35 PM,50.0,50.0,100,30.21,10.0,ESE,13.8,24.2,N/A,,Overcast,120,2013-04-30 23:35:00
7:55 PM,50.0,50.0,100,30.20,10.0,SE,18.4,26.5,N/A,,Overcast,130,2013-04-30 23:55:00
8:20 PM,50.0,50.0,100,30.22,10.0,SE,15.0,21.9,N/A,,Overcast,130,2013-05-01 00:20:00
8:40 PM,50.0,50.0,100,30.22,7.0,ESE,16.1,21.9,N/A,,Overcast,120,2013-05-01 00:40:00
9:00 PM,50.0,50.0,100,30.23,5.0,SE,17.3,23.0,N/A,,Overcast,130,2013-05-01 01:00:00
9:20 PM,50.0,50.0,100,30.23,10.0,SE,15.0,26.5,N/A,,Overcast,130,2013-05-01 01:20:00
9:40 PM,50.0,50.0,100,30.25,7.0,SE,15.0,23.0,N/A,,Overcast,130,2013-05-01 01:40:00
10:00 PM,50.0,50.0,100,30.24,10.0,SE,17.3,23.0,N/A,,Overcast,130,2013-05-01 02:00:00
10:20 PM,48.2,48.2,100,30.24,10.0,SE,17.3,24.2,N/A,,Overcast,130,2013-05-01 02:20:00
10:40 PM,48.2,48.2,100,30.24,10.0,SE,17.3,26.5,N/A,,Overcast,130,2013-05-01 02:40:00
11:00 PM,48.2,48.2,100,30.25,10.0,SE,16.1,25.3,N/A,,Overcast,130,2013-05-01 03:00:00
11:20 PM,48.2,48.2,100,30.25,10.0,SE,15.0,23.0,N/A,,Overcast,130,2013-05-01 03:20:00
11:40 PM,48.2,48.2,100,30.25,3.0,SE,15.0,21.9,N/A,,Overcast,140,2013-05-01 03:40:00